Location: Hormuz
(27.0871°N, 56.4580°E)
Time: 11:11:42
(UTC+04:30)

ISS - Pass Details

Date: 30 June 2021
Orbit: 419 x 421 km, 51.6° (Epoch: 03 August)

Event Time Altitude Azimuth Distance (km) Brightness Sun altitude
Exits shadow 02:54:21 12° 24° (NNE) 1,365 -0.4 -31.2°
Drops below altitude 10° 02:54:42 10° 27° (NNE) 1,496 -0.1 -31.1°
Sets 02:56:53 0° 35° (NE) 2,361 1.2 -30.9°
